Waarnemingen

Advertentie
Mijn weer
Baltasound, Groot Brittannië (3002): temperatuur & dauwpunt: 10.01.2021 02:00:00 - 16.01.2021 02:00:00 (GMT)Baltasound, Groot Brittannië (3002): temperatuur -20cm: 10.01.2021 02:00:00 - 16.01.2021 02:00:00 (GMT)Baltasound, Groot Brittannië (3002): windsnelheid & windstoten: 10.01.2021 02:00:00 - 16.01.2021 02:00:00 (GMT)Baltasound, Groot Brittannië (3002): windrichting: 10.01.2021 02:00:00 - 16.01.2021 02:00:00 (GMT)Baltasound, Groot Brittannië (3002): luchtdruk: 10.01.2021 02:00:00 - 16.01.2021 02:00:00 (GMT)Baltasound, Groot Brittannië (3002): zicht: 10.01.2021 02:00:00 - 16.01.2021 02:00:00 (GMT)Baltasound, Groot Brittannië (3002): neerslag: 10.01.2021 02:00:00 - 16.01.2021 02:00:00 (GMT)
Datum & Tijd tt [°C] td [°C] tt -20cm [°C] ff [km/u] ff [kn] fx [km/u] fx [kn] dd ppp [hPa] vv [km] rr [mm]
16.01.2021 02:00:00 5,8 2,4 - 50 27 72 39 ZZO 1015,5 21 -
16.01.2021 01:00:00 5,8 2,7 - 42 23 61 33 ZZO 1016,7 28 0,0
16.01.2021 00:00:00 5,5 2,3 - 39 21 55 30 Z 1018,1 40 0,0
15.01.2021 23:00:00 5,7 3,3 - 34 18 55 30 Z 1019,0 26 0,0
15.01.2021 22:00:00 5,9 3,7 - 26 14 - - Z 1019,8 24 0,0
15.01.2021 21:00:00 5,3 3,5 - 22 12 - - Z 1020,8 19 0,0
15.01.2021 20:00:00 3,8 3,1 - 15 8 - - Z 1021,3 30 0,0
15.01.2021 19:00:00 4,3 3,7 - 16 9 - - Z 1021,8 45 0,0
15.01.2021 18:00:00 4,3 3,6 - 15 8 - - Z 1021,9 40 0,0
15.01.2021 17:00:00 5,6 4,8 - 16 9 - - Z 1022,2 30 0,0
15.01.2021 16:00:00 6,0 5,2 - 21 11 - - Z 1022,5 22 0,2
15.01.2021 15:00:00 6,2 5,5 - 26 14 48 26 ZZO 1022,8 30 1,2
15.01.2021 14:00:00 5,6 5,2 - 39 21 52 28 ZO 1023,6 2,2 0,2
15.01.2021 13:00:00 5,2 4,2 - 39 21 52 28 ZO 1024,6 4,1 0,0
15.01.2021 12:00:00 5,0 3,1 - 37 20 50 27 ZO 1025,4 16 0,0
15.01.2021 11:00:00 5,4 2,2 - 35 19 50 27 ZO 1026,1 35 0,0
15.01.2021 10:00:00 5,1 1,4 - 37 20 - - ZO 1026,1 45 0,0
15.01.2021 09:00:00 5,0 1,1 2,7 29 16 - - ZO 1026,2 45 0,0
15.01.2021 08:00:00 5,1 1,0 - 31 17 - - ZO 1026,1 45 0,0
15.01.2021 07:00:00 4,7 0,3 - 26 14 - - ZZO 1026,0 45 0,0
15.01.2021 06:00:00 4,0 -0,4 - 24 13 - - ZO 1026,1 40 0,0
15.01.2021 05:00:00 4,3 -0,7 - 21 11 - - ZZO 1026,1 35 0,0
15.01.2021 04:00:00 4,9 -0,3 - 21 11 - - ZZO 1026,0 40 0,0
15.01.2021 03:00:00 4,2 0,9 - 29 16 - - ZZO 1026,3 35 0,0
15.01.2021 02:00:00 4,2 0,3 - 24 13 - - ZZO 1026,2 30 0,0
15.01.2021 01:00:00 4,9 0,7 - 21 11 - - Z 1026,1 50 0,0
15.01.2021 00:00:00 3,7 0,8 - 15 8 55 30 Z 1026,0 45 0,0
14.01.2021 23:00:00 4,1 1,3 - 21 11 - - ZZO 1026,0 23 0,0
14.01.2021 22:00:00 4,5 1,2 - 21 11 - - Z 1025,7 29 0,0
14.01.2021 21:00:00 4,0 0,3 - 16 9 - - Z 1025,5 35 0,0
14.01.2021 20:00:00 4,4 0,2 - 21 11 - - Z 1025,3 35 0,0
14.01.2021 19:00:00 2,9 0,4 - 11 6 - - ZZW 1025,2 35 0,0
14.01.2021 18:00:00 4,3 0,4 - 18 10 - - Z 1024,9 35 0,0
14.01.2021 17:00:00 4,1 0,4 - 18 10 - - Z 1024,6 40 0,0
14.01.2021 16:00:00 3,3 0,1 - 18 10 - - ZZW 1024,3 50 0,0
14.01.2021 15:00:00 4,3 -1,5 - 18 10 - - ZZO 1024,0 50 0,0
14.01.2021 14:00:00 4,3 -1,4 - 18 10 - - Z 1023,9 45 0,0
14.01.2021 13:00:00 4,2 -1,2 - 18 10 - - Z 1023,9 40 0,0
14.01.2021 12:00:00 4,4 -0,9 - 21 11 - - ZZO 1023,7 45 0,0
14.01.2021 11:00:00 4,3 -0,7 - 22 12 - - ZZO 1023,4 45 0,0
14.01.2021 10:00:00 3,8 -1,4 - 22 12 - - ZZO 1023,0 45 0,0
14.01.2021 09:00:00 4,0 -1,2 2,7 26 14 - - ZZO 1022,5 45 0,0
14.01.2021 08:00:00 3,7 -1,6 - 24 13 - - ZZO 1022,1 45 0,0
14.01.2021 07:00:00 3,3 -1,8 - 22 12 - - ZZO 1021,7 45 0,0
14.01.2021 06:00:00 3,6 -1,6 - 22 12 - - ZZO 1021,2 50 0,0
14.01.2021 05:00:00 3,4 -2,0 - 22 12 - - ZZO 1021,0 50 0,0
14.01.2021 04:00:00 3,0 -2,2 - 26 14 - - ZZO 1020,9 50 0,0
14.01.2021 03:00:00 2,5 -2,4 - 24 13 - - ZZO 1020,7 50 0,0
14.01.2021 02:00:00 2,8 -2,6 - 24 13 - - ZZO 1020,5 50 0,0
14.01.2021 01:00:00 2,5 -2,8 - 22 12 - - ZO 1020,4 50 0,0
14.01.2021 00:00:00 2,5 -2,5 - 22 12 - - ZO 1020,3 50 0,0
13.01.2021 23:00:00 2,2 -2,8 - 22 12 - - ZO 1020,0 50 0,0
13.01.2021 22:00:00 2,1 -2,8 - 21 11 - - ZO 1019,5 50 0,0
13.01.2021 21:00:00 2,0 -3,2 - 21 11 - - OZO 1018,9 45 0,0
13.01.2021 20:00:00 2,8 -2,7 - 21 11 - - OZO 1018,6 50 0,0
13.01.2021 19:00:00 2,9 -2,1 - 22 12 - - O 1018,5 45 0,0
13.01.2021 18:00:00 2,9 -2,1 - 22 12 - - O 1017,9 30 0,0
13.01.2021 17:00:00 3,0 -2,1 - 22 12 - - O 1017,7 40 0,0
13.01.2021 16:00:00 3,1 -1,6 - 22 12 - - ONO 1017,5 25 0,0
13.01.2021 15:00:00 3,5 -1,1 - 26 14 - - ONO 1017,4 23 0,0
13.01.2021 14:00:00 3,9 -1,2 - 22 12 - - ONO 1017,0 23 0,0
13.01.2021 13:00:00 4,8 0,0 - 24 13 - - ONO 1016,7 21 0,0
13.01.2021 12:00:00 4,8 1,5 - 26 14 - - NO 1016,2 22 0,0
13.01.2021 11:00:00 4,9 0,9 - 31 17 - - NO 1015,7 17 0,0
13.01.2021 10:00:00 4,9 0,5 - 24 13 46 25 NNO 1015,1 24 0,0
13.01.2021 09:00:00 3,6 1,6 2,9 22 12 - - NNO 1014,9 21 0,0
13.01.2021 08:00:00 3,8 0,7 - 29 16 52 28 N 1014,3 19 0,2
13.01.2021 07:00:00 4,5 0,7 - 31 17 50 27 N 1013,7 20 0,0
13.01.2021 06:00:00 4,6 0,1 - 34 18 61 33 N 1013,6 15 0,0
13.01.2021 05:00:00 4,3 -0,2 - 29 16 50 27 N 1013,4 18 0,0
13.01.2021 04:00:00 3,7 -1,4 - 28 15 48 26 N 1012,8 19 0,0
13.01.2021 03:00:00 3,8 -1,9 - 35 19 59 32 N 1012,8 23 0,0
13.01.2021 02:00:00 3,9 -1,7 - 37 20 57 31 NNW 1012,5 30 0,0
13.01.2021 01:00:00 4,0 -0,8 - 37 20 54 29 NNW 1012,5 28 0,0
13.01.2021 00:00:00 3,6 -1,0 - 41 22 55 30 NNW 1012,3 28 0,0
12.01.2021 23:00:00 2,4 -0,5 - 44 24 65 35 NNW 1012,2 26 0,0
12.01.2021 22:00:00 3,7 -0,3 - 37 20 59 32 NNW 1011,6 24 0,0
12.01.2021 21:00:00 3,5 -0,4 - 37 20 54 29 NNW 1011,5 26 0,4
12.01.2021 20:00:00 2,0 -0,1 - 39 21 65 35 NNW 1011,5 2,2 0,2
12.01.2021 19:00:00 3,4 -0,8 - 41 22 59 32 NNW 1010,7 22 0,0
12.01.2021 18:00:00 3,2 -0,2 - 35 19 52 28 NNW 1010,5 21 0,0
12.01.2021 17:00:00 2,8 0,2 - 37 20 57 31 NNW 1010,1 23 0,2
12.01.2021 16:00:00 3,2 -0,6 - 35 19 55 30 NNW 1009,8 28 0,0
12.01.2021 15:00:00 3,4 -0,4 - 35 19 54 29 NNW 1009,5 26 0,0
12.01.2021 14:00:00 3,6 -0,3 - 34 18 52 28 NNW 1009,3 30 0,0
12.01.2021 13:00:00 3,5 -1,8 - 28 15 - - NNW 1008,9 35 0,0
12.01.2021 12:00:00 3,1 0,5 - 24 13 46 25 NNW 1008,8 21 0,0
12.01.2021 11:00:00 2,2 0,0 - 31 17 52 28 NNW 1008,8 40 0,0
12.01.2021 10:00:00 2,2 -0,2 - 41 22 54 29 NNW 1008,4 10 0,2
12.01.2021 09:00:00 2,5 -0,4 3,0 34 18 52 28 NNW 1008,0 45 0,0
12.01.2021 08:00:00 2,9 -0,8 - 35 19 48 26 NW 1007,3 30 0,0
12.01.2021 07:00:00 3,4 -2,8 - 37 20 52 28 NNW 1007,0 30 0,0
12.01.2021 06:00:00 3,3 -2,1 - 34 18 52 28 NNW 1006,6 35 0,0
12.01.2021 05:00:00 3,2 -1,3 - 29 16 48 26 NNW 1006,0 16 0,0
12.01.2021 04:00:00 3,1 -1,8 - 31 17 - - NNW 1005,3 30 0,0
12.01.2021 03:00:00 3,3 -2,6 - 34 18 54 29 N 1004,6 45 0,0
12.01.2021 02:00:00 3,2 -1,9 - 31 17 - - N 1003,7 40 0,0
12.01.2021 01:00:00 3,0 -2,6 - 31 17 48 26 N 1002,8 50 0,4
12.01.2021 00:00:00 2,5 -0,9 - 37 20 61 33 NNO 1001,7 50 0,0
11.01.2021 23:00:00 1,7 0,4 - 29 16 48 26 NNO 1000,1 30 0,4
11.01.2021 22:00:00 2,5 -0,2 - 24 13 - - N 998,0 14 0,0
11.01.2021 21:00:00 2,7 -0,8 - 28 15 - - NNW 996,6 45 0,0
11.01.2021 20:00:00 2,2 0,4 - 34 18 57 31 NNW 995,7 35 2,6
11.01.2021 19:00:00 2,3 0,5 - 39 21 65 35 WNW 995,5 24 0,0
11.01.2021 18:00:00 2,0 0,0 - 29 16 52 28 NW 995,9 22 0,0
11.01.2021 17:00:00 2,5 -0,8 - 29 16 48 26 WNW 996,0 19 0,0
11.01.2021 16:00:00 1,7 -0,1 - 22 12 48 26 WNW 996,3 40 0,0
11.01.2021 15:00:00 2,0 -0,3 - 26 14 46 25 W 996,2 29 0,0
11.01.2021 14:00:00 1,7 -0,3 - 34 18 48 26 WNW 996,9 45 0,0
11.01.2021 13:00:00 0,5 0,2 - 34 18 59 32 NW 997,5 10 0,0
11.01.2021 12:00:00 0,3 0,0 - 15 8 46 25 WNW 997,9 1,5 0,0
11.01.2021 11:00:00 -0,2 -0,6 - 18 10 - - WNW 998,6 35 0,0
11.01.2021 10:00:00 0,8 -1,0 - 28 15 - - W 999,3 1,5 0,0
11.01.2021 09:00:00 0,5 -1,6 3,2 18 10 - - NW 999,6 45 0,0
11.01.2021 08:00:00 -2,5 -4,5 - 8 4 - - NW 999,8 35 0,0
11.01.2021 07:00:00 -1,6 -3,5 - 11 6 - - NW 1000,3 35 0,0
11.01.2021 06:00:00 -0,9 -5,2 - 9 5 - - NW 1000,4 50 0,0
11.01.2021 05:00:00 0,4 -2,5 - 11 6 - - NNW 1000,8 35 0,0
11.01.2021 04:00:00 -0,4 -1,8 - 18 10 - - NW 1001,4 18 0,0
11.01.2021 03:00:00 -0,1 -1,7 - 4 2 - - WNW 1002,0 30 0,0
11.01.2021 02:00:00 0,6 -3,1 - 21 11 - - WNW 1002,5 40 0,0
11.01.2021 01:00:00 0,8 -3,6 - 13 7 - - WNW 1003,1 50 0,0
11.01.2021 00:00:00 0,3 -2,4 - 13 7 61 33 WNW 1003,9 50 0,0
10.01.2021 23:00:00 -1,2 -2,1 - 4 2 - - ZW 1004,7 16 0,0
10.01.2021 22:00:00 -2,7 -4,4 - 4 2 - - WZW 1005,2 18 0,0
10.01.2021 21:00:00 -0,3 -3,2 - 8 4 - - WNW 1005,9 10 0,0
10.01.2021 20:00:00 0,5 -2,0 - 11 6 - - NNW 1006,5 35 0,0
10.01.2021 19:00:00 0,0 -2,1 - 16 9 - - WNW 1007,1 45 0,0
10.01.2021 18:00:00 -1,4 -2,5 - 9 5 - - W 1007,5 22 0,0
10.01.2021 17:00:00 -1,2 -3,2 - 11 6 - - W 1007,7 35 0,0
10.01.2021 16:00:00 0,4 -0,9 - 9 5 - - NNW 1008,3 18 0,0
10.01.2021 15:00:00 0,0 -1,4 - 15 8 - - NW 1008,5 17 0,2
10.01.2021 14:00:00 1,7 -2,0 - 22 12 48 26 NW 1008,3 35 0,6
10.01.2021 13:00:00 2,2 -3,4 - 29 16 46 25 W 1008,6 40 2,8
10.01.2021 12:00:00 1,9 -1,8 - 29 16 50 27 W 1009,0 25 0,0
10.01.2021 11:00:00 2,0 -2,1 - 39 21 54 29 WNW 1009,4 30 0,0
10.01.2021 10:00:00 0,5 0,0 - 37 20 61 33 W 1010,3 1,1 0,0
10.01.2021 09:00:00 1,6 -0,9 3,4 22 12 - - W 1010,3 13 0,0
10.01.2021 08:00:00 0,7 0,0 - 21 11 57 31 WZW 1011,0 9 0,0
10.01.2021 07:00:00 1,5 -2,4 - 26 14 - - W 1011,3 24 0,0
10.01.2021 06:00:00 -0,1 -0,9 - 13 7 - - W 1011,9 12 0,0
10.01.2021 05:00:00 0,5 -0,4 - 26 14 52 28 WNW 1012,5 14 0,2
10.01.2021 04:00:00 0,8 -0,2 - 21 11 68 37 WNW 1012,6 14 0,0
10.01.2021 03:00:00 2,7 -1,5 - 28 15 65 35 WNW 1012,3 20 0,0
10.01.2021 02:00:00 2,9 -1,3 - 39 21 65 35 W 1012,5 23 0,0

tt = temperatuur
td = dauwpunt
tt -20cm = temperatuur -20cm
ff = windsnelheid
fx = windstoten
dd = windrichting
ppp = luchtdruk
vv = zicht
rr = neerslag

Weerstations in de omgeving